Погода Айон Остров

Погода Айон Остров : погода сейчас, прогноз погоды и архив. Всё, что Вы хотите узнать о погоде Айон Остров!

Поиск расширенной информации на нашем сайте:

Другие новости

Новости СМИ2

Главная страница сайта

Новости сайта

03.07.2017

Напоминаем, что на нашем специализированном сайте Метеоцентр.Азия вы можете получить высокодетализированные автоматические прогнозы погоды по пунктам России, СНГ и мира в авиационном формате (включающие направление и скорость ветра, видимость, явления погоды, количество и форму облачности, нижнюю и верхнюю границу облачности).


Погода Айон Остров - сегодня

Время (UTC), дата Ветер
(°,м/с) 
Видим.   Явления Облачность Т
(°С)
Тd
(°С)
f(%) Тe
(°С)
Pmin
(гПа)
dP
(гПа)
Po
(мм)
O2
(г/м3)
Тmin Tmax R s Состояние
почвы
18 13.04.18 150 (ЮВ) 9-10{15}  20000 м  позёмок  ясно 
-17.1 -20.3 76 -26  1024.3  -0.3  767  331           
21 13.04.18 160 (Ю) 11-12{13}  20000 м  позёмок  ясно 
-15.8 -18.8 78 -25  1024.1  -0.2  767  329  -19.3      14  неравномерный
сухой снег
100% 
03 14.04.18 190 (Ю) 3-5{06}  20000 м    ясно 
-11.3 -14.7 76 -14  1023.8  -0.8  767  324           
06 14.04.18 150 (ЮВ) 6-7{07}  20000 м  позёмок  ясно 
-12 -15.8 73 -18  1022.7  -1.1  766  324           
15 14.04.18 080 (В) 2-3{05}  20000 м    ясно 
-18.7 -21.3 80 -21  1019.2  -1.8  763  332           
21 14.04.18 070 (В) 3-4{07}  20000 м    8/0 средняя, верхняя 
[Ac trans|Ci fib]
-17.7 -19.3 87 -22  1015.1  -1.9  760  329  -19.9      14  неравномерный
сухой снег
100% 
03 15.04.18 080 (В) 4-5{06}  20000 м    8/0 средняя, верхняя 
[Ac trans|Ci fib]
-9.6 -12.2 81 -14  1012  -1.6  758  318           
06 15.04.18 080 (В) 4-5{06}  20000 м    10/0 средняя, верхняя 
[Ac trans|Ci fib]
-10.8 -12.6 87 -15  1011  -1  757  319           
15 15.04.18 080 (В) 2-3{06}  20000 м    9/0 средняя 
[Ac trans]
-15.3 -16.6 90 -18  1007.9  -1.1  755  324           
18 15.04.18 080 (В) 2-3{04}  20000 м    6/0 средняя, верхняя 
[Ac trans|Ci fib]
-15.8 -17 90 -18  1006.9  -1  754  324           
21 15.04.18 070 (В) 2-3{03}  20000 м    3/0 средняя, верхняя 
[Ac trans|Ci fib]
-15.1 -16.9 86 -17  1006.2  -0.7  753  323  -17      14  неравномерный
сухой снег
100% 
03 16.04.18 050 (СВ) 4-5{06}  20000 м    10/0 средняя, верхняя 
[Ac trans|Ci fib]
-9 -10.6 88 -13  1003.5  -1.9  751  314           
09 16.04.18 050 (СВ) 7-11{12}  20000 м  позёмок  10/0 средняя 
[As op]
-7.4 -8.7 90 -13  998.4  -2.5  748  310    -6.9       
09 17.04.18 090 (В) 6-7{10}  20000 м  позёмок  1/0 средняя 
[Ac trans]
-6.5 -7.9 90 -11  1001.2  1.1  750  310    -0.5       
21 17.04.18 130 (ЮВ) 2-3{05}  20000 м    10/0 средняя 
[Ac und]
-4.7 -6.4 88 -6  1002  0.8  750  308  -8.6      12  неравномерный
сухой снег
100% 
03 18.04.18 110 (В) 4-4{06}  20000 м    8/0 средняя, верхняя 
[Ac trans|Ci fib]
-1.6 -3.3 88 -4  1004.2  1.2  752  305           
09 18.04.18 130 (ЮВ) 6-7{09}  20000 м  позёмок  3/0 средняя 
[Ac trans]
-6.5 -7.7 91 -11  1006.6  1.6  754  312    -0.9       
15 18.04.18 090 (В) 3-4{06}  20000 м    ясно 
-10.4 -12.4 85 -13  1008.9  755  318           
18 18.04.18 090 (В) 3-3{05}  20000 м    4/0 средняя 
[Ac trans]
-10.2 -11.5 90 -13  1009.7  0.8  756  318           
21 18.04.18 070 (В) 3-4{04}  0500 м  переохл. туман  ?/?  
-6.1 -6.4 98 -9  1010.6  0.9  757  313  -11.2      12  неравномерный
сухой снег
100% 
09 19.04.18 050 (СВ) 6-7{07}  10 км  позёмок  10/10 210 м 
[St]
-5.2 -6.9 88 -10  1012.9  0.9  758  312    -3       
15 19.04.18 040 (СВ) 2-3{04}  0500 м  переохл. туман  ?/?  
-7.2 -7.5 98 -9  1014.7  0.7  760  315           
18 19.04.18 040 (СВ) 2-3{04}  0500 м  переохл. туман  ?/?  
-8.9 -9.5 95 -11  1015.5  0.8  760  318           
21 19.04.18 050 (СВ) 2-3{03}  10 км  в посл. час туман  10/10 120 м 
[St]
-9.4 -10.1 95 -11  1016.4  0.9  761  319  -9.7      12  неравномерный
сухой снег
100% 
00 20.04.18 050 (СВ) 2-4{04}  10 км  {туман}  10/10 120 м 
[St]
-7.5 -8.8 90 -9  1016.5  0.1  761  316           
Время (UTC), дата Ветер
(°,м/с) 
Видим.   Явления Облачность Т
(°С)
Тd
(°С)
f(%) Тe
(°С)
Pmin
(гПа)
dP
(гПа)
Po
(мм)
O2
(г/м3)
Тmin Tmax R s Состояние
почвы

Для получения пояснительной информации подведите курсор к названию столбца.

ПОГОДА Айон Остров - архив

Всё, что Вы хотите узнать о погоде Айон Остров - удобно и подробно!

Выберите нужную дату (начиная с 1 января 2015* года) и нажмите кнопку "Найти".
Будут отображены архивные сводки погоды по пункту Айон Остров, начиная с указанной даты.


Отображать данные в формате CSV (для использования в таблицах Excel)


Внимание! Наш архив погоды предназначен исключительно для личного некоммерческого использования в познавательных целях. Если Вам необходимы официальные справки о состоянии погоды (для производственных, юридических, коммерческих и т.п. целей), обращайтесь в органы Росгидромета.

*Примечание: данная дата относится к архиву по метеостанциям СССР (Россия, СНГ, Балтия).
Архив по метеостанциям Зарубежной Европы и Азии (кроме Китая) хранится 10 дней, по другим регионам земного шара (Китай, Африка, Америка, Австралия, Океания) - 1 день.

Айон Остров - район местоположения метеостанции


Название, широта, долгота, высота метеостанции:
Айон Остров 69.8°ш. 168.7°д. 16 м над ур. моря [Российская Федерация]

Дополнительная информация

В oтличие oт бoльшинства пoгoдных сайтoв мы публикуем пoдрoбную метеoинфoрмацию в детальнoм прoфессиoнальнoм фoрмате.

Характеристики температуры и влажнoсти вoздуха измеряются на высoте 2 м в тени вдали oт зданий и деревьев.
Скoрoсть ветра измеряется на высoте 10 м (на урoвне рoста челoвека скoрoсть ветра ниже в 1.5-2 раза). Если метеoстанция нахoдится в гoрoде или в лесу, тo скoрoсть ветра занижена на 2-4 м/с пo сравнению с oткрытым местoм. Скoрoсть ветра над акватoриями крупных рек и oзёр, а также на вершинах хoлмoв на 2-5 м/с выше, чем в oбычных услoвиях.
Атмoсфернoе давление в разных тoчках местнoсти мoжет значительнo oтличаться oт давления на метеoстанции, в зависимoсти oт услoвий рельефа (при пoдъёме на 10 м давление пoнижается примернo на 1 мм рт.ст.).